Winston-Salem, NC

3:28 PM EDT on June 25, 2017 (GMT -0400)
Smith Reynolds

Weather History for KINT - October, 2012

Change the Weather History Date:

Wednesday, October 24, 2012

  Actual Average Record
Temperature  
Mean Temperature 65 °F -  
Max Temperature 80 °F 66 °F 84 °F (2001)
Min Temperature 50 °F 46 °F 24 °F (1969)
Growing Degree Days 15 (Base 50)    
Moisture  
Dew Point 51 °F    
Average Humidity 69    
Maximum Humidity 93    
Minimum Humidity 36    
Precipitation  
Precipitation 0.00 in - - ()
Sea Level Pressure  
Sea Level Pressure 30.14 in    
Wind  
Wind Speed 1 mph (South)    
Max Wind Speed 6 mph    
Max Gust Speed -    
Visibility 10 miles    
Events      
Averages and records for this station are not official NWS values.
T = Trace of Precipitation, MM = Missing Value Source: NWS Daily Summary

Daily Weather History Graph

Daily Weather History Graph

Search for Another Location

Airport or City:

Trip Planner

Search our weather history database for the weather conditions in past years. The results will help you decide how hot, cold, wet, or windy it might be!

Date:

Astronomy

Oct. 24, 2012 Rise Set
Actual Time 7:36 AM EDT 6:33 PM EDT
Civil Twilight 7:10 AM EDT 6:59 PM EDT
Nautical Twilight 6:40 AM EDT 7:29 PM EDT
Astronomical Twilight 6:10 AM EDT 7:59 PM EDT
Moon 3:40 PM EDT (10/24) 2:38 AM EDT (10/24)
Length of Visible Light 11h 49m
Length of Day
10h 56m
Waxing Gibbous, 76% of the Moon is Illuminated
Oct 24
Waxing Gibbous
Oct 29
Full
Nov 6
Last Quarter
Nov 13
New
Nov 20
First Quarter

Hourly Weather History & Observations

Time (EDT) Temp. Dew Point Humidity Pressure Visibility Wind Dir Wind Speed Gust Speed Precip Events Conditions
12:54 AM 55.0 °F 50.0 °F 83% 30.15 in 10.0 mi Calm Calm - N/A   Clear
1:54 AM 54.0 °F 48.9 °F 83% 30.15 in 10.0 mi Calm Calm - N/A   Clear
2:54 AM 52.0 °F 48.9 °F 89% 30.15 in 10.0 mi Calm Calm - N/A   Clear
3:54 AM 52.0 °F 48.9 °F 89% 30.14 in 10.0 mi Calm Calm - N/A   Clear
4:54 AM 51.1 °F 48.0 °F 89% 30.14 in 10.0 mi Calm Calm - N/A   Clear
5:54 AM 51.1 °F 48.0 °F 89% 30.16 in 10.0 mi Calm Calm - N/A   Clear
6:54 AM 52.0 °F 48.0 °F 86% 30.17 in 10.0 mi Calm Calm - N/A   Clear
7:54 AM 50.0 °F 48.0 °F 93% 30.19 in 9.0 mi Calm Calm - N/A   Clear
8:54 AM 55.9 °F 52.0 °F 87% 30.20 in 9.0 mi Calm Calm - N/A   Clear
9:54 AM 63.0 °F 53.1 °F 70% 30.20 in 10.0 mi Calm Calm - N/A   Clear
10:54 AM 66.0 °F 53.1 °F 63% 30.19 in 10.0 mi Calm Calm - N/A   Clear
11:54 AM 71.1 °F 52.0 °F 51% 30.17 in 10.0 mi WSW 5.8 mph - N/A   Clear
12:54 PM 75.0 °F 54.0 °F 48% 30.15 in 10.0 mi Variable 3.5 mph - N/A   Clear
1:54 PM 75.9 °F 53.1 °F 45% 30.12 in 10.0 mi Variable 3.5 mph - N/A   Clear
2:54 PM 78.1 °F 51.1 °F 39% 30.10 in 10.0 mi ESE 3.5 mph - N/A   Clear
3:54 PM 80.1 °F 52.0 °F 38% 30.09 in 10.0 mi Calm Calm - N/A   Clear
4:54 PM 79.0 °F 50.0 °F 36% 30.10 in 10.0 mi Calm Calm - N/A   Clear
5:54 PM 77.0 °F 52.0 °F 42% 30.10 in 10.0 mi SSE 3.5 mph - N/A   Clear
6:54 PM 72.0 °F 53.1 °F 51% 30.11 in 10.0 mi Calm Calm - N/A   Clear
7:54 PM 64.9 °F 54.0 °F 68% 30.12 in 10.0 mi Calm Calm - N/A   Clear
8:54 PM 64.9 °F 54.0 °F 68% 30.13 in 10.0 mi Calm Calm - N/A   Clear
9:54 PM 60.1 °F 54.0 °F 80% 30.14 in 10.0 mi Calm Calm - N/A   Clear
10:54 PM 59.0 °F 53.1 °F 81% 30.14 in 10.0 mi Calm Calm - N/A   Clear
11:54 PM 55.9 °F 52.0 °F 87% 30.14 in 10.0 mi Calm Calm - N/A   Clear